EHI
18 18 17 16 11 7 6 7 9 10 12 14 15 14 12 11 10 9 8 6 6 6 6 7 9 11 12 13 15 17 20 20 17 14 11 9 10 10 8 7 5 2 0
23 23 21 18 13 10 9 9 9 10 11 12 14 14 13 11 10 9 7 5 5 6 6 7 9 10 11 11 13 15 17 17 15 12 11 10 10 10 9 7 5 3 1
28 27 25 23 20 17 15 13 11 9 9 10 11 12 12 11 10 8 5 4 4 4 5 7 9 10 11 11 12 13 13 13 11 10 9 10 9 8 7 7 6 5 3
25 24 23 24 23 22 21 18 14 10 8 9 10 11 12 11 10 8 7 5 4 4 5 8 9 10 11 11 12 12 12 11 9 8 7 7 6 6 6 6 7 6 6
20 18 18 21 21 22 23 20 16 11 9 9 9 10 12 11 10 9 9 9 8 7 6 8 9 9 8 8 8 9 10 10 9 7 5 4 4 4 5 5 5 6 6
18 15 15 17 19 20 21 20 17 14 12 10 9 10 11 11 9 7 9 11 10 10 9 9 9 7 4 3 3 4 5 7 7 5 3 2 2 2 3 4 4 5 6
16 14 14 16 17 18 18 19 18 18 16 14 13 13 12 10 6 4 5 8 9 10 12 12 10 6 4 2 2 2 3 3 3 3 2 1 1 0 1 3 6 7 7
12 13 15 15 16 16 15 16 18 20 21 20 18 18 17 11 5 1 3 6 8 10 12 13 11 8 4 3 4 5 4 3 2 2 1 0 0 0 1 3 5 7 7
11 13 14 16 17 16 14 14 17 20 21 20 18 19 19 13 5 0 2 7 10 10 11 10 9 6 3 2 4 6 5 3 1 1 1 0 0 0 0 1 2 3 4
12 13 14 15 16 15 14 14 15 17 17 15 15 16 17 13 6 1 2 7 10 10 10 8 5 3 1 1 3 4 3 2 0 0 0 1 1 1 0 0 0 0 1
11 12 13 13 13 11 11 12 12 12 12 12 11 10 12 11 5 1 1 4 7 9 9 8 4 1 0 0 1 2 2 1 0 0 0 1 2 1 0 0 1 1 1
10 11 12 12 10 8 8 9 9 8 9 9 8 8 8 8 5 1 0 1 3 6 8 6 3 0 0 0 0 0 0 0 0 1 1 1 1 1 0 0 2 3 4
12 13 13 12 10 7 6 6 7 7 8 8 7 7 8 8 5 2 0 0 1 3 4 3 1 0 0 0 0 0 0 0 0 1 1 0 0 0 0 0 1 3 4
15 15 14 12 9 7 5 6 6 7 8 8 7 7 7 7 5 3 1 0 0 1 1 1 0 0 0 0 0 0 0 0 0 1 1 0 0 0 0 0 0 1 2
16 15 13 11 8 6 5 5 5 6 6 6 6 6 6 5 4 3 1 0 0 0 1 1 1 0 0 0 0 0 0 0 0 0 0 0 0 0 0 0 0 0 0
14 13 10 8 7 5 4 4 3 2 2 2 3 4 4 3 2 1 1 0 0 0 1 1 1 0 0 0 0 0 0 0 0 0 0 0 0 0 0 0 0 0 0
10 9 6 5 4 4 3 3 2 1 0 0 1 1 1 1 0 0 0 0 0 0 0 0 0 0 0 0 0 0 0 0 0 0 0 0 0 0 0 0 0 0 0
6 5 4 3 3 3 3 3 3 2 1 1 0 0 0 0 0 0 0 0 0 0 0 0 0 0 0 0 0 0 0 0 0 0 0 0 0 0 0 0 0 0 0
3 3 3 3 3 2 2 2 2 2 2 1 0 0 0 0 0 0 0 0 0 0 0 0 0 0 0 0 0 0 0 0 0 1 0 0 0 0 1 1 0 0 0
2 2 2 2 1 1 1 1 1 1 1 1 1 1 1 1 1 1 0 0 0 0 0 0 0 0 0 0 0 0 0 0 0 0 0 0 0 1 2 1 0 0 0
2 2 1 1 0 0 0 0 0 0 1 2 2 2 2 2 2 2 1 1 1 0 0 0 0 0 0 0 0 0 0 0 0 1 1 1 1 3 3 2 0 0 0
3 3 2 1 0 0 0 0 0 0 1 2 3 3 2 3 3 3 3 2 2 1 0 0 0 0 0 0 0 0 0 0 0 1 2 2 2 4 4 3 1 1 0
2 3 3 2 1 1 1 0 0 0 0 1 2 3 3 3 3 3 3 3 3 2 1 1 0 0 0 1 1 1 1 1 0 1 1 2 1 2 3 3 3 2 1
1 1 2 2 2 2 2 1 1 0 0 0 1 2 3 3 3 3 3 3 3 3 3 2 1 1 1 1 2 2 2 1 0 0 0 0 0 0 1 2 3 2 1
0 0 1 1 2 3 3 3 2 1 1 1 0 1 2 3 3 3 3 3 3 3 3 3 3 2 2 1 1 1 1 1 0 0 0 0 0 0 0 1 1 1 1
0 0 0 0 1 3 3 3 3 2 2 2 1 0 1 3 3 3 3 3 3 3 3 3 3 3 2 1 0 0 0 0 0 0 0 0 0 0 0 0 0 1 0
Wind_Speed
6 5 4 4 4 4 4 3 3 3 3 4 4 4 4 4 4 4 4 3 4 3 4 4 4 4 4 4 3 3 3 3 4 3 2 1 2 3 2 3 3 3 4
6 6 5 5 4 4 4 4 3 4 4 4 4 5 5 5 4 5 5 4 5 5 4 4 5 4 4 4 3 4 3 3 4 4 3 3 3 3 3 4 3 3 2
6 5 5 4 4 4 4 4 4 4 4 4 5 5 5 5 4 5 5 5 5 5 5 5 5 5 5 4 4 4 3 3 4 4 4 3 3 2 3 4 3 3 4
5 5 5 4 4 4 4 4 4 4 5 5 5 6 5 5 5 5 5 5 5 5 5 5 5 5 5 5 5 5 4 4 4 5 4 3 3 2 3 3 3 3 3
5 5 5 4 4 4 4 4 4 4 5 5 5 5 6 5 4 5 6 6 6 6 5 5 5 5 4 4 4 4 4 4 4 4 4 4 3 2 3 3 3 3 3
4 4 4 4 4 4 4 4 4 5 5 5 5 5 6 5 1 3 6 6 6 6 6 5 5 5 4 5 5 5 5 5 5 5 4 4 4 4 3 4 3 3 3
4 3 4 4 3 3 4 4 4 4 4 5 5 5 5 3 2 4 6 6 6 6 6 5 5 4 4 5 5 7 6 6 6 6 5 5 4 4 4 5 3 4 4
3 3 3 3 4 3 3 4 3 4 4 5 5 5 5 4 3 4 5 7 6 6 5 5 5 5 4 4 5 5 5 5 6 6 5 6 5 4 5 5 4 5 5
4 3 3 3 3 3 3 3 3 3 4 5 5 5 5 4 4 4 5 5 5 6 5 5 5 5 2 3 5 5 5 5 3 3 4 4 4 4 5 4 4 4 4
3 3 3 2 2 3 3 3 3 4 4 5 4 4 5 4 3 4 5 5 5 4 4 5 5 4 3 4 6 5 6 5 4 4 5 6 7 7 8 7 5 4 4
3 3 2 2 3 3 3 3 3 3 3 4 4 4 4 4 4 5 5 5 4 4 4 4 2 4 4 5 7 6 5 5 5 5 5 4 4 4 5 6 5 5 5
2 2 2 2 2 2 2 2 3 3 4 4 4 4 3 3 3 4 6 7 6 5 4 4 2 4 4 6 6 4 4 6 6 5 5 4 4 4 3 4 5 6 5
2 2 2 2 2 2 3 3 3 3 4 4 4 3 3 2 2 5 6 7 7 5 3 2 2 5 6 6 7 7 7 6 6 5 5 5 4 3 3 3 4 5 6
3 2 2 2 3 3 3 3 3 3 4 4 3 4 3 2 2 1 3 3 4 4 3 2 5 7 7 5 5 6 6 5 5 6 5 4 3 3 4 4 4 4 4
2 2 3 2 2 2 2 2 3 3 2 4 4 4 4 3 1 2 3 3 3 3 3 4 4 4 4 4 4 4 4 4 5 5 5 4 4 4 4 3 4 4 5
2 2 2 2 2 3 3 3 2 3 3 4 4 5 3 2 2 3 4 4 4 3 4 5 4 5 5 5 5 4 4 4 4 5 5 4 4 4 4 4 4 4 4
2 2 2 2 2 3 3 3 3 3 4 5 5 5 5 4 4 5 4 4 4 5 5 5 4 5 5 5 4 4 4 3 3 4 4 4 4 4 4 4 4 4 4
3 3 3 3 3 3 3 4 4 4 3 3 3 5 5 5 6 5 5 4 4 5 5 5 4 4 5 5 4 4 4 4 4 4 4 4 4 4 5 5 4 4 4
3 2 2 3 3 3 3 4 4 4 4 3 2 2 4 4 6 6 6 5 4 4 5 4 4 4 4 4 4 5 4 4 4 4 4 4 4 5 5 5 4 4 5
3 2 3 3 3 3 3 3 3 3 4 3 3 2 1 2 2 2 4 4 4 4 4 4 4 4 4 4 4 4 4 4 4 4 4 4 4 4 5 5 5 4 4
2 2 4 4 3 3 2 3 3 3 4 3 3 1 2 4 3 3 3 4 4 4 4 4 4 4 4 4 4 4 4 4 3 3 3 3 4 4 4 4 4 5 4
3 3 3 3 3 3 3 3 3 3 4 4 4 1 2 4 3 3 3 3 3 3 3 3 4 3 3 4 4 4 4 3 2 3 3 3 4 4 4 4 4 4 4
3 3 3 3 3 2 3 3 3 3 3 3 3 2 1 2 2 2 2 2 2 3 3 3 3 3 3 3 3 3 3 3 3 3 4 4 4 4 4 3 4 4 4
3 3 3 3 3 2 2 3 3 3 3 3 3 2 2 2 2 2 3 3 3 3 2 3 3 3 3 3 2 2 2 2 4 3 4 4 4 4 4 3 3 4 4
2 3 3 3 3 2 2 3 3 2 2 2 2 2 2 2 2 2 2 2 3 2 3 3 2 2 3 3 3 2 2 2 2 4 4 4 4 4 4 4 4 4 4
2 2 2 2 2 2 2 2 2 2 2 2 2 2 2 2 2 2 2 2 2 2 3 2 2 2 3 2 2 2 1 0 1 3 4 3 3 3 4 4 5 5 5
Wind_Direction
172 171 171 176 188 199 207 210 211 223 221 221 220 220 222 219 217 225 240 233 240 244 249 245 251 263 260 254 250 251 254 259 265 269 258 236 238 269 251 255 235 227 183
171 174 174 179 192 199 204 214 216 223 228 226 227 227 228 226 222 227 237 236 241 246 250 251 250 244 248 259 258 255 256 262 262 270 270 251 234 240 248 256 257 250 239
170 175 174 184 191 200 205 210 216 223 230 230 230 231 232 234 234 237 243 245 243 246 249 251 250 248 249 253 255 255 251 243 251 257 261 263 256 249 247 245 247 254 259
174 177 177 186 196 205 207 210 217 225 230 231 235 235 235 236 237 238 243 249 252 251 250 250 251 250 250 252 250 253 257 255 247 252 256 255 252 240 246 253 248 232 253
179 183 187 188 196 206 210 215 222 229 236 235 240 241 239 236 233 238 241 242 245 248 247 248 250 255 269 271 272 264 254 254 256 255 256 258 259 262 259 264 268 263 237
183 190 187 190 197 206 212 216 225 232 239 240 241 243 243 244 193 240 258 249 245 245 246 248 246 229 229 232 253 271 280 267 268 267 264 266 266 266 271 272 274 271 265
182 187 189 192 200 208 216 220 229 236 240 244 244 245 247 244 192 224 249 256 250 246 245 246 251 245 235 240 229 228 240 255 266 272 275 279 275 272 274 270 268 273 279
184 189 192 195 201 205 216 224 234 239 240 244 246 247 248 234 189 216 243 247 255 250 244 244 247 251 252 259 254 249 245 237 237 239 252 264 271 278 271 266 266 253 252
193 200 201 199 206 210 219 230 237 244 247 248 245 248 249 236 190 208 240 249 245 249 246 240 242 242 233 254 254 255 255 251 242 242 260 264 280 277 275 268 256 256 263
198 212 216 217 218 223 228 236 242 245 248 255 254 253 252 253 188 205 236 250 247 250 251 238 228 232 206 229 246 251 255 258 259 244 231 230 236 232 225 241 253 259 269
199 212 214 224 231 227 226 233 242 250 255 260 259 254 248 248 194 194 223 250 255 254 256 250 218 172 197 224 247 250 254 264 256 246 244 241 236 234 229 228 238 252 260
207 213 214 224 236 227 225 230 235 242 241 244 247 253 244 222 209 193 211 240 269 259 258 258 225 185 217 231 241 247 248 255 249 243 246 246 243 246 247 249 244 248 257
210 219 226 233 232 226 226 224 227 230 245 246 244 252 253 241 185 186 209 232 249 256 268 285 252 220 226 230 219 220 229 240 246 246 249 252 254 256 254 245 236 235 239
209 225 237 239 238 225 238 237 242 240 250 257 259 262 263 254 252 232 227 229 231 244 259 232 215 224 238 244 222 218 228 240 251 253 253 253 252 243 247 255 255 247 249
207 224 240 245 252 250 250 264 264 271 281 273 275 272 269 263 298 317 276 269 273 279 279 257 242 232 231 232 231 230 230 226 234 250 256 254 249 248 250 249 254 260 260
225 241 255 253 250 252 250 247 235 258 247 246 265 279 286 297 277 271 265 263 259 249 253 249 245 240 240 239 239 235 232 235 238 241 245 247 250 252 255 256 254 258 260
235 244 255 263 262 260 258 256 260 246 222 225 234 242 257 261 250 251 254 257 244 233 246 249 250 250 248 245 245 247 247 244 246 248 248 247 253 256 258 258 256 260 263
246 240 249 249 254 259 263 265 265 265 260 246 218 210 224 232 233 234 230 232 236 232 251 255 256 257 255 255 254 255 256 251 242 248 249 245 246 250 254 258 256 259 264
257 261 268 274 269 263 262 262 265 270 270 269 262 197 199 216 219 221 215 239 248 249 257 262 264 265 265 265 266 260 255 255 251 247 248 248 244 246 252 256 255 248 260
235 215 260 273 270 265 263 268 272 274 276 276 274 281 240 228 235 221 230 249 256 259 266 271 273 275 274 273 272 266 256 252 253 249 248 253 256 257 258 261 261 258 260
260 221 222 254 269 276 275 280 287 287 285 283 279 292 278 263 255 254 252 257 262 267 271 275 281 283 279 277 276 276 272 266 260 260 259 258 262 262 263 262 259 261 264
254 250 254 264 268 270 275 272 275 276 277 277 281 239 193 260 270 263 261 264 270 275 278 281 281 281 280 279 280 278 275 275 279 285 288 282 273 266 263 263 264 265 264
262 260 256 260 259 246 251 263 267 270 278 282 284 290 263 276 288 289 289 291 290 286 285 280 279 284 290 289 286 280 281 284 288 290 288 289 286 279 272 266 265 268 266
261 266 267 267 268 273 273 276 274 273 279 284 286 283 282 279 289 305 304 299 294 295 296 290 288 296 305 309 304 300 317 323 304 289 284 281 280 281 280 273 267 268 268
254 260 264 265 269 280 281 277 277 282 284 277 273 277 283 279 278 290 296 299 299 301 304 297 297 307 318 318 320 339 22 6 309 301 286 277 276 281 283 286 285 280 277
271 273 267 264 264 275 289 295 295 289 284 286 282 278 281 287 293 295 290 289 291 291 291 289 309 318 313 302 336 3 21 348 284 291 284 272 271 276 282 281 281 279 280